FW9909 Weather Reports


Display with metric or nautical units.
time (UTC)temp
F
wind
direction
speed
MPH
gust
MPH
rain 1hr
in
rain 24hr
in
rain mn
in
humidity
%
barometer
mb
20260503184527 76 243 6.0 11.0 0.00 0.00 0.00 42 1015.1
20260503183525 76 244 5.0 11.0 0.00 0.00 0.00 42 1015.3
20260503182524 75 246 6.0 16.0 0.00 0.00 0.00 43 1015.5
20260503181522 75 231 5.0 12.0 0.00 0.00 0.00 45 1015.7
20260503180520 75 247 3.0 8.0 0.00 0.00 0.00 46 1016.0
20260503175538 74 254 5.0 9.0 0.00 0.00 0.00 45 1016.2
20260503174537 73 254 5.0 11.0 0.00 0.00 0.00 46 1016.3
20260503173534 72 249 6.0 9.0 0.00 0.00 0.00 47 1016.4
20260503172533 71 264 5.0 10.0 0.00 0.00 0.00 46 1016.7
20260503171531 71 240 6.0 9.0 0.00 0.00 0.00 47 1016.9
20260503170529 70 258 5.0 10.0 0.00 0.00 0.00 47 1017.0
20260503150527 63 250 6.0 9.0 0.00 0.00 0.00 49 1017.9
20260503130524 50 210 2.0 5.0 0.00 0.00 0.00 74 1018.5
20260503110522 38 120 1.0 3.0 0.00 0.00 0.00 93 1018.5
20260503081531 40 102 2.0 2.0 0.00 0.00 0.00 91 1019.1
20260503080548 40 89 1.0 2.0 0.00 0.00 0.00 91 1019.0
20260503072521 42 94 1.0 2.0 0.00 0.00 0.00 89 1019.3
20260503071519 42 102 2.0 3.0 0.00 0.00 0.00 88 1019.3
20260503070518 42 107 2.0 3.0 0.00 0.00 0.00 88 1019.5
20260503054522 43 88 2.0 2.0 0.00 0.00 0.00 86 1020.0
20260503053541 43 101 2.0 3.0 0.00 0.00 0.00 86 1019.9
20260503052519 43 92 1.0 2.0 0.00 0.00 0.00 86 1020.0
20260503051517 44 82 1.0 3.0 0.00 0.00 0.00 84 1019.8
20260503050535 44 100 2.0 3.0 0.00 0.00 0.00 83 1019.8
20260503045533 44 80 1.0 2.0 0.00 0.00 0.00 81 1019.8
20260503044532 45 80 1.0 2.0 0.00 0.00 0.00 78 1019.8
20260503043530 45 85 1.0 2.0 0.00 0.00 0.00 75 1019.7
20260503042528 46 84 1.0 2.0 0.00 0.00 0.00 73 1019.7
20260503041526 46 90 2.0 2.0 0.00 0.00 0.00 71 1019.8
20260503040524 47 77 1.0 2.0 0.00 0.00 0.00 71 1019.8
20260503035522 47 90 2.0 3.0 0.00 0.00 0.00 69 1019.8
20260503034521 48 76 1.0 2.0 0.00 0.00 0.00 66 1019.8
20260503033519 48 72 1.0 2.0 0.00 0.00 0.00 65 1019.8
20260503032537 49 85 1.0 3.0 0.00 0.00 0.00 64 1019.9
20260503031535 49 96 2.0 3.0 0.00 0.00 0.00 61 1019.8
20260503030533 50 72 2.0 2.0 0.00 0.00 0.00 60 1019.7
20260503025531 51 76 1.0 2.0 0.00 0.00 0.00 58 1019.5
20260503024550 51 59 2.0 2.0 0.00 0.00 0.00 57 1019.5
20260503023527 52 74 2.0 3.0 0.00 0.00 0.00 55 1019.5
20260503022526 52 75 2.0 3.0 0.00 0.00 0.00 54 1019.5
20260503021524 53 67 2.0 2.0 0.00 0.00 0.00 50 1019.3
20260503020522 54 65 1.0 3.0 0.00 0.00 0.00 49 1019.1
20260503015520 55 58 2.0 4.0 0.00 0.00 0.00 47 1019.2
20260503014538 56 43 2.0 4.0 0.00 0.00 0.00 44 1019.1
20260503013517 56 47 2.0 4.0 0.00 0.00 0.00 44 1019.2
20260503012534 56 61 2.0 4.0 0.00 0.00 0.00 43 1019.0
20260503011533 57 45 2.0 5.0 0.00 0.00 0.00 42 1019.0
20260503010531 58 42 2.0 4.0 0.00 0.00 0.00 42 1018.9
20260503005529 58 60 2.0 9.0 0.00 0.00 0.00 42 1018.8
20260503004547 58 45 3.0 4.0 0.00 0.00 0.00 41 1018.8
20260503003518 59 47 3.0 7.0 0.00 0.00 0.00 40 1018.7
20260503002517 60 57 2.0 5.0 0.00 0.00 0.00 40 1018.6
20260503001535 60 47 3.0 5.0 0.00 0.00 0.00 38 1018.6
20260503000533 60 53 3.0 6.0 0.00 0.00 0.00 38 1018.8
20260502235531 60 61 2.0 4.0 0.00 0.00 0.00 38 1018.6
20260502234549 61 54 2.0 5.0 0.00 0.00 0.00 38 1018.8
20260502233527 61 63 2.0 6.0 0.00 0.00 0.00 38 1018.7
20260502232525 62 58 3.0 6.0 0.00 0.00 0.00 37 1018.7
20260502231523 62 24 3.0 6.0 0.00 0.00 0.00 37 1018.8
20260502230522 62 51 3.0 9.0 0.00 0.00 0.00 35 1019.0
20260502225520 63 66 3.0 7.0 0.00 0.00 0.00 36 1018.9
20260502224518 63 48 4.0 7.0 0.00 0.00 0.00 35 1018.9
20260502223536 65 43 3.0 7.0 0.00 0.00 0.00 35 1018.9
20260502222535 64 43 2.0 8.0 0.00 0.00 0.00 35 1018.8
20260502221532 65 27 4.0 7.0 0.00 0.00 0.00 36 1018.7
20260502220531 64 40 3.0 6.0 0.00 0.00 0.00 36 1018.8
20260502215529 65 27 4.0 8.0 0.00 0.00 0.00 36 1018.8
20260502214527 64 42 5.0 10.0 0.00 0.00 0.00 36 1018.9
20260502213545 67 66 5.0 10.0 0.00 0.00 0.00 36 1018.9
20260502212523 66 250 3.0 6.0 0.00 0.00 0.00 39 1018.9
20260502211601 65 46 4.0 9.0 0.00 0.00 0.00 37 1019.0
20260502210539 65 66 4.0 8.0 0.00 0.00 0.00 37 1018.9
20260502205537 66 37 3.0 9.0 0.00 0.00 0.00 35 1019.0
20260502204516 65 58 4.0 9.0 0.00 0.00 0.00 36 1019.1
20260502203534 65 46 4.0 6.0 0.00 0.00 0.00 36 1019.3
20260502202552 65 40 7.0 7.0 0.00 0.00 0.00 35 1019.4
20260502201610 65 50 7.0 10.0 0.00 0.00 0.00 38 1019.4
20260502200528 65 29 4.0 7.0 0.00 0.00 0.00 37 1019.5
20260502195526 66 44 3.0 8.0 0.00 0.00 0.00 38 1019.5
20260502194545 64 57 6.0 9.0 0.00 0.00 0.00 39 1019.6
20260502193523 63 42 4.0 7.0 0.00 0.00 0.00 40 1019.7
20260502192521 62 62 5.0 9.0 0.00 0.00 0.00 41 1019.6
20260502191519 62 37 4.0 8.0 0.00 0.00 0.00 41 1019.7
20260502190518 63 63 4.0 6.0 0.00 0.00 0.00 39 1019.7
20260502185515 63 72 5.0 10.0 0.00 0.00 0.00 39 1019.8